TimeCST,TemperatureF,Dew PointF,Humidity,Sea Level PressureIn,VisibilityMPH,Wind Direction,Wind SpeedMPH,Gust SpeedMPH,PrecipitationIn,Events,Conditions,WindDirDegrees,DateUTC
12:53 AM,50.0,45.0,83,29.98,10.0,WNW,5.8,-,N/A,,Overcast,300,2012-11-07 06:53:00
1:53 AM,48.0,44.1,86,29.96,10.0,Calm,Calm,-,N/A,,Mostly Cloudy,0,2012-11-07 07:53:00
2:53 AM,46.9,44.1,90,29.95,10.0,WNW,3.5,-,N/A,,Scattered Clouds,290,2012-11-07 08:53:00
3:03 AM,46.4,44.6,93,29.95,10.0,WNW,4.6,-,N/A,,Mostly Cloudy,290,2012-11-07 09:03:00
3:10 AM,46.4,42.8,87,29.95,10.0,WNW,5.8,-,N/A,,Scattered Clouds,300,2012-11-07 09:10:00
3:53 AM,45.0,42.1,90,29.96,10.0,NW,5.8,-,N/A,,Clear,310,2012-11-07 09:53:00
4:53 AM,44.1,42.1,93,29.97,9.0,WNW,4.6,-,N/A,,Clear,290,2012-11-07 10:53:00
5:53 AM,44.1,42.1,93,29.97,8.0,Calm,Calm,-,0.01,,Mostly Cloudy,0,2012-11-07 11:53:00
6:53 AM,44.1,41.0,89,29.99,6.0,Calm,Calm,-,N/A,,Clear,0,2012-11-07 12:53:00
7:53 AM,48.0,43.0,83,30.00,9.0,NNW,4.6,-,N/A,,Clear,330,2012-11-07 13:53:00
8:53 AM,51.1,42.1,71,30.01,10.0,NNW,4.6,-,N/A,,Partly Cloudy,340,2012-11-07 14:53:00
9:53 AM,54.0,39.9,59,30.00,10.0,WNW,10.4,-,N/A,,Partly Cloudy,300,2012-11-07 15:53:00
10:53 AM,55.0,39.0,55,29.99,10.0,WNW,8.1,-,N/A,,Mostly Cloudy,290,2012-11-07 16:53:00
11:53 AM,57.0,37.9,49,29.95,10.0,NW,10.4,17.3,N/A,,Mostly Cloudy,310,2012-11-07 17:53:00
12:53 PM,57.0,37.0,47,29.94,10.0,WNW,9.2,16.1,N/A,,Overcast,300,2012-11-07 18:53:00
1:53 PM,57.0,37.0,47,29.94,10.0,NW,10.4,16.1,N/A,,Overcast,320,2012-11-07 19:53:00
2:53 PM,55.0,37.9,53,29.96,10.0,NW,10.4,-,N/A,,Overcast,310,2012-11-07 20:53:00
3:53 PM,53.1,37.0,55,29.99,10.0,NNW,8.1,16.1,N/A,,Overcast,340,2012-11-07 21:53:00
5:53 PM,51.1,36.0,56,30.05,10.0,NNW,4.6,-,N/A,,Overcast,330,2012-11-07 23:53:00
6:53 PM,48.9,37.9,66,30.08,10.0,NNW,8.1,-,N/A,,Clear,340,2012-11-08 00:53:00
7:53 PM,46.9,37.9,71,30.09,10.0,NNW,5.8,-,N/A,,Clear,340,2012-11-08 01:53:00
8:53 PM,45.0,37.9,76,30.12,10.0,NW,5.8,-,N/A,,Clear,320,2012-11-08 02:53:00
9:53 PM,43.0,37.9,82,30.12,10.0,NW,5.8,-,N/A,,Clear,320,2012-11-08 03:53:00
10:53 PM,43.0,39.0,86,30.12,10.0,Calm,Calm,-,N/A,,Clear,0,2012-11-08 04:53:00
11:53 PM,43.0,39.0,86,30.13,10.0,NNW,5.8,-,N/A,,Clear,330,2012-11-08 05:53:00